Regional Weather Roundup
Issued by NWS Sioux Falls, SD

Home | Current Version | Previous Version | Graphics & Text | Print | Product List | Glossary On
Versions: 1 2 3 4 5 6 7 8 9 10 11 12 13 14 15 16 17 18 19 20 21 22 23 24 25 26 27 28 29 30 31 32 33 34 35 36 37 38 39 40 41 42 43 44 45 46 47 48 49 50
824
ASUS43 KFSD 230002
RWRFSD

WEATHER ROUNDUP FOR SE SOUTH DAKOTA/SW MINNESOTA/NW IOWA
NATIONAL WEATHER SERVICE SIOUX FALLS SD
700 PM CDT SUN APR 22 2018

NOTE: "FAIR" INDICATES FEW OR NO CLOUDS BELOW 12,000 FEET WITH NO
SIGNIFICANT WEATHER AND OR OBSTRUCTIONS TO VISIBILITY.


SDZ038>040-050-052>070-230100-
SOUTHEAST SOUTH DAKOTA

CITY           SKY/WX    TMP DP  RH WIND       PRES   REMARKS
BROOKINGS      SUNNY     55  39  54 SE13      30.21S
CHAMBERLAIN    SUNNY     63  36  36 SE13      30.15S
6HR MIN TEMP:  58; 6HR MAX TEMP:  64;

HURON          NOT AVBL
MADISON        FAIR      55  39  54 SE13      30.20S
MITCHELL       SUNNY     62  39  42 S8        30.17F
6HR MIN TEMP:  57; 6HR MAX TEMP:  63;

SIOUX FALLS    MOSUNNY   59  37  44 SE13      30.19S
6HR MIN TEMP:  59; 6HR MAX TEMP:  63;

WINNER         FAIR      62  37  39 S13       30.14S
YANKTON        SUNNY     64  33  31 E5        30.16F
$$

MNZ071-072-080-081-089-090-097-098-230100-
SOUTHWEST MINNESOTA

CITY           SKY/WX    TMP DP  RH WIND       PRES   REMARKS
FAIRMONT       SUNNY     47  38  71 E7        30.24
JACKSON        SUNNY     46  36  66 E6        30.23F
LUVERNE        SUNNY     54  34  47 SE8       30.21F
MARSHALL       SUNNY     53  38  56 S10       30.23F
6HR MIN TEMP:  52; 6HR MAX TEMP:  55;

MONTEVIDEO     SUNNY     57  37  47 SW8       30.24S
PIPESTONE      SUNNY    N/A N/A N/A SE8       30.22S
REDWOOD FALLS  SUNNY     55  42  61 S9        30.23F
TRACY          SUNNY     51  40  64 SE7       30.23F
WINDOM         SUNNY     52  28  40 E7        30.22F
WORTHINGTON      N/A     51  39  63 E8        30.22S
$$

IAZ001>003-012>014-020>022-031-032-NEZ013-014-SDZ071-230100-
NORTHWEST IOWA

CITY           SKY/WX    TMP DP  RH WIND       PRES   REMARKS
DENISON        MOSUNNY   63  28  27 E10       30.17S
ESTHERVILLE    SUNNY     45  39  79 E7        30.22F
LE MARS        SUNNY     61  39  44 E9G16     30.18F
ORANGE CITY    SUNNY     61  43  51 E10       30.20S
SHELDON        SUNNY     55  43  62 SE12      30.19S
SIOUX CITY     SUNNY     65  33  30 E14       30.15F
6HR MIN TEMP:  62; 6HR MAX TEMP:  68;

SPENCER        SUNNY     54  40  59 E13       30.21F
6HR MIN TEMP:  54; 6HR MAX TEMP:  58;

STORM LAKE     SUNNY     55  46  71 NE14      30.18F
$$

ABBREVIATIONS USED IN REMARKS
   TC - TEMPERATURE IN CELSIUS
  WCI - WIND CHILL INDEX
   HX - HEAT INDEX
  VSB - VISIBILITY





USA.gov is the U.S. government's official web portal to all federal, state and local government web resources and services.